User: anonymous   Login
Location: Caltech
(34.1382°N, 118.1253°W)
Time: 04:10:24
(UTC-08:00)
Language:

Cosmos 1975 - Orbit

View from above orbital plane
View from above orbital plane
View from above satellite
View from above satellite

Ground track
Ground track

The orbit data is extracted from the following two-line orbital elements,

1 19573U 88093A   17345.94588463 +.00000770 +00000-0 +53010-4 0  9997
2 19573 082.5191 173.4853 0015517 056.3206 303.9498 15.04354487565390
Epoch (UTC): 11 December 2017 22:42:04
Eccentricity: 0.0015517
inclination: 82.5191°
perigee height: 543 km
apogee height: 564 km
right ascension of ascending node: 173.4853°
argument of perigee: 56.3206°
revolutions per day: 15.04354487
mean anomaly at epoch: 303.9498°
orbit number at epoch: 56539

The dashed part of the orbit path shows where the satellite is in the earth's shadow,  

DLR